Voltar ao catálogo

COSMOS 2499 DEB

AtivoPO
NORAD 49939·DEBRIS·🇷🇺 Russia

Lançado May 23, 2014 de Plesetsk Cosmodrome

Loading…

Próximas Passagens (próximas 24 horas)

TLE

AtualizadoSource: Space-Track

Época: Sep 14, 2026, 13:43 UTC

1 49939U 14028W   26257.57220004  .00002020  00000-0  66151-2 0  9996
2 49939  82.5019 194.1343 0270050 116.6375 246.2664 12.89175620228350

Acompanhe COSMOS 2499 DEB em tempo real com AllMySat

Download on the App Store